This demonstration page uses our WeatherBlox Daily Observations layout. Learn more.

Left ArrowRight Arrow

Hourly Observations for July 3, 2017

Temp ( °F °C ) Dew Point ( °F °C ) Humidity (%) Winds ( mph kmh ) Pressure ( in mb ) Visibility ( mi km ) Precip ( " mm )
12:53 am 00:53 Clear 78 25.6 62 16.7 58 58 Calm 29.88 1012 10 16 0.00 0.00
1:53 am 01:53 Clear 77 25 63 17.2 62 62 N 3 6 29.88 1012 10 16 0.00 0.00
2:53 am 02:53 Clear 74 23.3 62 16.7 67 67 Calm 29.89 1012 10 16 0.00 0.00
3:53 am 03:53 Clear 72 22.2 62 16.7 71 71 NNE 3 6 29.90 1012 10 16 0.00 0.00
4:53 am 04:53 Clear 71 21.7 62 16.7 73 73 Calm 29.91 1013 10 16 0.00 0.00
5:53 am 05:53 Sunny 69 20.6 61 16.1 76 76 Calm 29.92 1013 10 16 0.00 0.00
6:40 am 06:40 Sunny 70 21 61 16 73 73 undefined N/A 29.91 1013 10 16 0.00 0.00
6:53 am 06:53 Sunny 73 22.8 62 16.7 69 69 Calm 29.93 1014 10 16 0.00 0.00
7:53 am 07:53 Sunny 77 25 60 15.6 56 56 Calm 29.94 1014 10 16 0.00 0.00
8:53 am 08:53 Sunny 80 26.7 58 14.4 47 47 Calm 29.94 1014 10 16 0.00 0.00
9:53 am 09:53 Sunny 84 28.9 59 15 43 43 VRB 3 6 29.93 1014 10 16 0.00 0.00
10:53 am 10:53 Sunny 89 31.7 54 12.2 30 30 SW 6 9 29.93 1013 10 16 0.00 0.00
11:53 am 11:53 Sunny 92 33.3 55 12.8 29 29 Calm 29.93 1013 10 16 0.00 0.00
12:53 pm 12:53 Sunny 96 35.6 55 12.8 25 25 SW 6 9 29.92 1013 10 16 0.00 0.00
1:53 pm 13:53 Sunny 97 36.1 52 11.1 22 22 S 9 15 29.91 1013 10 16 0.00 0.00
2:53 pm 14:53 Sunny 99 37.2 49 9.4 18 18 S 9 15 29.89 1012 10 16 0.00 0.00
3:53 pm 15:53 Sunny 100 37.8 50 10 18 18 S 14 22 29.88 1012 10 16 0.00 0.00
4:53 pm 16:53 Sunny 100 37.8 50 10 18 18 S 9 15 29.87 1011 10 16 0.00 0.00
5:53 pm 17:53 Sunny 97 36.1 46 7.8 17 17 S 15 24 29.85 1011 10 16 0.00 0.00
6:53 pm 18:53 Sunny 96 35.6 46 7.8 18 18 SSW 10 17 29.85 1011 10 16 0.00 0.00
7:53 pm 19:53 Sunny 93 33.9 52 11.1 25 25 S 10 17 29.85 1011 10 16 0.00 0.00
8:53 pm 20:53 Clear 88 31.1 54 12.2 31 31 SSW 7 11 29.87 1011 10 16 0.00 0.00
9:53 pm 21:53 Clear 84 28.9 55 12.8 37 37 E 3 6 29.88 1012 10 16 0.00 0.00
10:53 pm 22:53 Clear 81 27.2 56 13.3 42 42 Calm 29.89 1012 10 16 0.00 0.00
11:53 pm 23:53 Clear 77 25 57 13.9 50 50 Calm 29.90 1013 10 16 0.00 0.00

Powered by AerisWeather